FW4132 Weather Reports


Display with metric or nautical units.
time (UTC)temp
F
wind
direction
speed
MPH
gust
MPH
rain 1hr
in
rain 24hr
in
rain mn
in
humidity
%
barometer
mb
20260508080509 50 117 0.0 0.0 0.00 0.00 0.00 67 1015.6
20260508080355 50 117 0.0 0.0 0.00 0.00 0.00 67 1016.8
20260508080022 50 117 0.0 0.0 0.00 0.00 0.00 67 1015.6
20260508075854 51 117 0.0 0.0 0.00 0.00 0.00 68 1016.8
20260508075508 50 117 0.0 6.0 0.00 0.00 0.00 67 1015.7
20260508075353 51 117 1.0 6.0 0.00 0.00 0.00 66 1016.8
20260508075010 51 117 0.0 7.0 0.00 0.00 0.00 67 1015.7
20260508074853 51 117 3.0 7.0 0.00 0.00 0.00 69 1016.8
20260508074519 51 110 2.0 7.0 0.00 0.00 0.00 68 1015.6
20260508074353 51 112 3.0 7.0 0.00 0.00 0.00 69 1016.8
20260508074006 51 117 4.0 6.0 0.00 0.00 0.00 68 1015.6
20260508073853 51 111 2.0 6.0 0.00 0.00 0.00 68 1016.8
20260508073510 51 115 3.0 6.0 0.00 0.00 0.00 69 1015.7
20260508073354 51 103 1.0 6.0 0.00 0.00 0.00 69 1016.9
20260508073033 51 149 0.0 3.0 0.00 0.00 0.00 67 1015.7
20260508072853 51 153 1.0 3.0 0.00 0.00 0.00 68 1016.9
20260508072616 51 130 0.0 3.0 0.00 0.00 0.00 68 1016.9
20260508072507 51 130 0.0 3.0 0.00 0.00 0.00 66 1015.8
20260508072009 51 110 0.0 4.0 0.00 0.00 0.00 66 1015.8
20260508071853 51 110 0.0 4.0 0.00 0.00 0.00 68 1017.1
20260508071532 51 112 0.0 4.0 0.00 0.00 0.00 68 1015.7
20260508071353 51 109 0.0 4.0 0.00 0.00 0.00 67 1017.1
20260508071005 51 119 0.0 2.0 0.00 0.00 0.00 64 1015.8
20260508070853 51 119 0.0 2.0 0.00 0.00 0.00 64 1016.9
20260508070624 52 118 0.0 2.0 0.00 0.00 0.00 62 1017.1
20260508070507 51 119 0.0 2.0 0.00 0.00 0.00 62 1015.7
20260508070023 52 118 0.0 1.0 0.00 0.00 0.00 61 1015.5
20260508065851 53 118 0.0 1.0 0.00 0.00 0.00 61 1016.8
20260508065508 52 118 0.0 2.0 0.00 0.00 0.00 61 1015.5
20260508065346 53 118 0.0 2.0 0.00 0.00 0.00 61 1016.9
20260508065006 53 118 0.0 2.0 0.00 0.00 0.00 60 1015.5
20260508064839 53 118 1.0 3.0 0.00 0.00 0.00 60 1017.1
20260508064531 53 110 0.0 4.0 0.00 0.00 0.00 60 1015.6
20260508064333 54 110 1.0 6.0 0.00 0.00 0.00 59 1017.1
20260508064008 54 110 0.0 6.0 0.00 0.00 0.00 58 1015.6
20260508063827 55 109 2.0 6.0 0.00 0.00 0.00 59 1017.1
20260508063516 55 111 2.0 6.0 0.00 0.00 0.00 58 1015.6
20260508063321 55 119 2.0 6.0 0.00 0.00 0.00 58 1017.1
20260508063031 55 112 2.0 6.0 0.00 0.00 0.00 58 1015.5
20260508062815 55 121 2.0 6.0 0.00 0.00 0.00 59 1017.1
20260508062529 55 117 2.0 6.0 0.00 0.00 0.00 58 1016.9
20260508062516 55 105 2.0 6.0 0.00 0.00 0.00 57 1015.5
20260508062013 55 109 1.0 7.0 0.00 0.00 0.00 56 1015.5
20260508061803 56 158 2.0 7.0 0.00 0.00 0.00 57 1016.9
20260508061518 55 111 1.0 7.0 0.00 0.00 0.00 55 1015.5
20260508061258 56 128 1.0 7.0 0.00 0.00 0.00 57 1017.1
20260508061017 56 181 1.0 4.0 0.00 0.00 0.00 55 1017.1
20260508061009 55 170 0.0 4.0 0.00 0.00 0.00 55 1015.5
20260508060502 55 221 1.0 4.0 0.00 0.00 0.00 55 1015.5
20260508060245 56 188 1.0 3.0 0.00 0.00 0.00 56 1017.1
20260508060005 55 180 1.0 6.0 0.00 0.00 0.00 56 1015.6
20260508055739 56 109 1.0 6.0 0.00 0.00 0.00 56 1017.1
20260508055502 55 111 0.0 6.0 0.00 0.00 0.00 56 1015.7
20260508055234 56 111 1.0 6.0 0.00 0.00 0.00 56 1017.2
20260508055002 55 127 0.0 3.0 0.00 0.00 0.00 55 1015.6
20260508054727 56 211 1.0 4.0 0.00 0.00 0.00 55 1017.1
20260508054503 56 211 0.0 7.0 0.00 0.00 0.00 55 1015.6
20260508054220 56 119 1.0 7.0 0.00 0.00 0.00 57 1017.1
20260508054001 56 126 1.0 7.0 0.00 0.00 0.00 55 1015.7
20260508053715 56 91 1.0 7.0 0.00 0.00 0.00 55 1017.2
20260508053505 56 95 0.0 6.0 0.00 0.00 0.00 55 1015.9
20260508053209 56 106 1.0 6.0 0.00 0.00 0.00 56 1017.2
20260508053005 56 106 2.0 6.0 0.00 0.00 0.00 55 1015.8
20260508052928 56 140 1.0 4.0 0.00 0.00 0.00 56 1017.2
20260508052502 56 138 0.0 4.0 0.00 0.00 0.00 55 1015.8
20260508052157 56 103 1.0 4.0 0.00 0.00 0.00 55 1017.2
20260508052007 56 218 1.0 4.0 0.00 0.00 0.00 56 1015.9
20260508051652 56 164 1.0 4.0 0.00 0.00 0.00 55 1017.2
20260508051507 56 105 1.0 4.0 0.00 0.00 0.00 55 1015.9
20260508051407 57 80 1.0 6.0 0.00 0.00 0.00 56 1017.3
20260508051003 56 102 1.0 6.0 0.00 0.00 0.00 55 1015.9
20260508050639 57 178 1.0 6.0 0.00 0.00 0.00 55 1017.3
20260508050503 56 111 0.0 7.0 0.00 0.00 0.00 55 1015.8
20260508050133 57 119 2.0 7.0 0.00 0.00 0.00 56 1017.1
20260508050005 56 231 1.0 7.0 0.00 0.00 0.00 56 1015.9
20260508045628 57 113 2.0 8.0 0.00 0.00 0.00 56 1017.2
20260508045503 56 105 1.0 8.0 0.00 0.00 0.00 54 1015.8
20260508045121 57 136 3.0 8.0 0.00 0.00 0.00 57 1017.1
20260508045004 56 134 1.0 8.0 0.00 0.00 0.00 54 1015.7
20260508044834 57 111 2.0 8.0 0.00 0.00 0.00 56 1017.1
20260508044504 57 111 3.0 8.0 0.00 0.00 0.00 55 1015.7
20260508044109 57 153 2.0 7.0 0.00 0.00 0.00 56 1017.2
20260508044002 57 106 2.0 7.0 0.00 0.00 0.00 54 1015.7
20260508043603 57 113 1.0 3.0 0.00 0.00 0.00 56 1017.2
20260508043502 57 129 1.0 3.0 0.00 0.00 0.00 54 1015.7
20260508043321 58 146 1.0 3.0 0.00 0.00 0.00 55 1017.2
20260508043003 57 146 0.0 3.0 0.00 0.00 0.00 55 1015.7
20260508042550 58 140 1.0 6.0 0.00 0.00 0.00 54 1017.3
20260508042503 57 140 1.0 6.0 0.00 0.00 0.00 54 1015.8
20260508042307 58 113 2.0 6.0 0.00 0.00 0.00 54 1017.3
20260508042004 57 112 2.0 6.0 0.00 0.00 0.00 54 1015.8
20260508041539 58 179 1.0 4.0 0.00 0.00 0.00 53 1017.3
20260508041510 57 178 1.0 4.0 0.00 0.00 0.00 53 1015.8
20260508041029 58 84 1.0 8.0 0.00 0.00 0.00 54 1017.2
20260508041003 57 68 1.0 8.0 0.00 0.00 0.00 53 1015.7
20260508040523 58 124 2.0 8.0 0.00 0.00 0.00 54 1017.2
20260508040502 57 124 0.0 8.0 0.00 0.00 0.00 53 1015.8
20260508040240 58 105 1.0 7.0 0.00 0.00 0.00 53 1017.2
20260508040010 58 108 1.0 6.0 0.00 0.00 0.00 53 1015.7
20260508035511 58 132 1.0 6.0 0.00 0.00 0.00 54 1017.1
20260508035503 58 132 1.0 6.0 0.00 0.00 0.00 54 1015.7
20260508035006 58 123 1.0 4.0 0.00 0.00 0.00 51 1017.2
20260508035004 58 123 0.0 4.0 0.00 0.00 0.00 51 1015.8
20260508034521 58 124 1.0 4.0 0.00 0.00 0.00 54 1015.7
20260508034500 58 124 1.0 4.0 0.00 0.00 0.00 54 1017.2
20260508034006 58 156 0.0 3.0 0.00 0.00 0.00 50 1015.7
20260508033953 59 156 1.0 3.0 0.00 0.00 0.00 50 1017.2
20260508033709 59 154 1.0 3.0 0.00 0.00 0.00 49 1017.2
20260508033503 58 154 0.0 3.0 0.00 0.00 0.00 49 1015.7
20260508033019 59 90 0.0 3.0 0.00 0.00 0.00 48 1015.6
20260508032941 59 90 0.0 3.0 0.00 0.00 0.00 48 1017.3
20260508032504 59 120 0.0 4.0 0.00 0.00 0.00 47 1015.6
20260508032436 60 120 0.0 4.0 0.00 0.00 0.00 47 1017.2
20260508032156 60 120 0.0 4.0 0.00 0.00 0.00 46 1017.3
20260508032002 59 120 0.0 4.0 0.00 0.00 0.00 46 1015.6
20260508031504 60 122 0.0 3.0 0.00 0.00 0.00 46 1015.6
20260508031423 60 122 1.0 3.0 0.00 0.00 0.00 46 1017.3
20260508031003 60 122 0.0 3.0 0.00 0.00 0.00 45 1015.6
20260508030917 60 122 1.0 3.0 0.00 0.00 0.00 44 1017.1
20260508030502 60 272 1.0 3.0 0.00 0.00 0.00 43 1015.5
20260508030418 61 272 0.0 3.0 0.00 0.00 0.00 44 1017.1
20260508030008 60 113 0.0 4.0 0.00 0.00 0.00 45 1015.5
20260508025917 61 113 0.0 4.0 0.00 0.00 0.00 44 1016.9
20260508025504 61 68 0.0 4.0 0.00 0.00 0.00 44 1015.5
20260508025417 61 68 1.0 4.0 0.00 0.00 0.00 44 1016.8
20260508025006 61 202 1.0 7.0 0.00 0.00 0.00 44 1015.5
20260508024918 62 78 1.0 7.0 0.00 0.00 0.00 44 1016.8
20260508024519 61 237 1.0 7.0 0.00 0.00 0.00 42 1015.5
20260508024418 62 238 0.0 7.0 0.00 0.00 0.00 43 1016.8
20260508024142 62 202 0.0 1.0 0.00 0.00 0.00 44 1016.8
20260508024003 62 202 0.0 1.0 0.00 0.00 0.00 43 1015.5
20260508023504 62 187 0.0 1.0 0.00 0.00 0.00 42 1015.4
20260508023415 63 187 0.0 2.0 0.00 0.00 0.00 42 1016.8
20260508023016 62 187 0.0 2.0 0.00 0.00 0.00 43 1015.5
20260508022915 63 187 0.0 2.0 0.00 0.00 0.00 43 1016.8
20260508022507 63 187 0.0 2.0 0.00 0.00 0.00 41 1015.5
20260508022416 63 196 0.0 2.0 0.00 0.00 0.00 41 1016.7
20260508022004 63 196 0.0 2.0 0.00 0.00 0.00 41 1015.5
20260508021915 64 196 0.0 2.0 0.00 0.00 0.00 42 1016.7
20260508021520 63 196 0.0 3.0 0.00 0.00 0.00 42 1015.5
20260508021413 64 196 1.0 4.0 0.00 0.00 0.00 42 1016.8
20260508021006 63 196 0.0 4.0 0.00 0.00 0.00 41 1015.4
20260508020911 64 205 1.0 4.0 0.00 0.00 0.00 41 1016.7
20260508020506 64 237 2.0 4.0 0.00 0.00 0.00 40 1015.4
20260508020411 64 238 1.0 4.0 0.00 0.00 0.00 41 1016.7
20260508020004 64 145 1.0 3.0 0.00 0.00 0.00 42 1015.5
20260508015911 64 146 1.0 3.0 0.00 0.00 0.00 42 1016.7
20260508015504 64 153 0.0 4.0 0.00 0.00 0.00 41 1015.5
20260508015409 64 120 1.0 4.0 0.00 0.00 0.00 42 1016.8
20260508015002 64 237 0.0 4.0 0.00 0.00 0.00 41 1015.5
20260508014909 64 237 1.0 4.0 0.00 0.00 0.00 41 1016.9
20260508014512 64 235 0.0 4.0 0.00 0.00 0.00 41 1015.4
20260508014409 65 234 0.0 0.0 0.00 0.00 0.00 41 1016.8
20260508014004 64 233 0.0 0.0 0.00 0.00 0.00 40 1015.3
20260508013903 65 234 0.0 1.0 0.00 0.00 0.00 42 1016.9
20260508013504 64 234 0.0 3.0 0.00 0.00 0.00 39 1015.3
20260508013359 65 269 0.0 3.0 0.00 0.00 0.00 41 1016.9
20260508013003 64 298 0.0 4.0 0.00 0.00 0.00 40 1015.4
20260508012900 65 298 1.0 4.0 0.00 0.00 0.00 40 1016.9
20260508012502 64 279 0.0 8.0 0.00 0.00 0.00 40 1015.4
20260508012359 65 279 2.0 8.0 0.00 0.00 0.00 40 1017.1
20260508012006 65 292 2.0 8.0 0.00 0.00 0.00 39 1015.5
20260508011859 65 287 3.0 8.0 0.00 0.00 0.00 40 1017.2
20260508011519 65 265 1.0 7.0 0.00 0.00 0.00 38 1015.5
20260508011400 66 240 2.0 7.0 0.00 0.00 0.00 39 1017.1
20260508011119 66 266 2.0 6.0 0.00 0.00 0.00 38 1017.1
20260508011003 65 187 1.0 6.0 0.00 0.00 0.00 38 1015.5
20260508010503 66 280 2.0 6.0 0.00 0.00 0.00 37 1015.6
20260508010358 66 288 2.0 6.0 0.00 0.00 0.00 37 1017.2
20260508010032 66 306 1.0 7.0 0.00 0.00 0.00 36 1015.6
20260508005859 67 306 2.0 7.0 0.00 0.00 0.00 36 1017.2
20260508005504 66 274 1.0 7.0 0.00 0.00 0.00 35 1015.6
20260508005358 67 283 2.0 7.0 0.00 0.00 0.00 34 1017.2
20260508005005 67 311 2.0 4.0 0.00 0.00 0.00 33 1015.7
20260508004859 67 300 1.0 3.0 0.00 0.00 0.00 34 1017.2
20260508004507 66 255 0.0 3.0 0.00 0.00 0.00 32 1015.7
20260508004359 67 255 1.0 3.0 0.00 0.00 0.00 33 1017.3
20260508004119 66 252 3.0 8.0 0.00 0.00 0.00 33 1017.4
20260508004005 66 253 1.0 8.0 0.00 0.00 0.00 32 1015.7
20260508003502 66 275 1.0 8.0 0.00 0.00 0.00 32 1015.8
20260508003355 67 305 3.0 8.0 0.00 0.00 0.00 33 1017.3
20260508003012 66 291 2.0 4.0 0.00 0.00 0.00 32 1015.7
20260508002854 67 304 2.0 6.0 0.00 0.00 0.00 33 1017.4
20260508002509 66 263 2.0 6.0 0.00 0.00 0.00 34 1015.8
20260508002355 66 242 2.0 6.0 0.00 0.00 0.00 33 1017.5
20260508002118 66 283 2.0 6.0 0.00 0.00 0.00 34 1017.5
20260508002003 66 279 2.0 6.0 0.00 0.00 0.00 33 1015.8
20260508001618 66 250 2.0 5.0 0.00 0.00 0.00 34 1017.4
20260508001511 65 250 0.0 5.0 0.00 0.00 0.00 33 1015.8
20260508001006 65 258 2.0 10.0 0.00 0.00 0.00 33 1015.8
20260508000855 66 281 3.0 10.0 0.00 0.00 0.00 34 1017.5
20260508000616 66 321 2.0 10.0 0.00 0.00 0.00 33 1017.4
20260508000508 65 264 2.0 10.0 0.00 0.00 0.00 33 1015.8
20260508000009 65 275 3.0 6.0 0.00 0.00 0.00 33 1015.7
20260507235855 66 321 1.0 6.0 0.00 0.00 0.00 34 1017.4
20260507235511 65 306 2.0 7.0 0.00 0.00 0.00 33 1015.7
20260507235354 66 315 1.0 7.0 0.00 0.00 0.00 34 1017.4
20260507235010 65 118 0.0 7.0 0.00 0.00 0.00 33 1015.8
20260507234855 66 118 3.0 7.0 0.00 0.00 0.00 34 1017.4
20260507234619 66 277 3.0 8.0 0.00 0.00 0.00 31 1017.5
20260507234522 65 277 2.0 8.0 0.00 0.00 0.00 31 1015.8
20260507234003 66 310 2.0 8.0 0.00 0.00 0.00 31 1015.9
20260507233855 66 294 3.0 8.0 0.00 0.00 0.00 32 1017.5
20260507233507 66 307 0.0 8.0 0.00 0.00 0.00 33 1015.8
20260507233355 66 307 2.0 8.0 0.00 0.00 0.00 33 1017.5
20260507233008 66 255 2.0 10.0 0.00 0.00 0.00 33 1015.8
20260507232855 66 259 2.0 10.0 0.00 0.00 0.00 34 1017.4
20260507232503 66 313 2.0 10.0 0.00 0.00 0.00 32 1015.8
20260507232354 66 317 2.0 10.0 0.00 0.00 0.00 33 1017.6
20260507232003 66 311 1.0 5.0 0.00 0.00 0.00 33 1015.9
20260507231855 66 124 1.0 5.0 0.00 0.00 0.00 34 1017.4
20260507231517 66 312 1.0 8.0 0.00 0.00 0.00 32 1016.0
20260507231352 66 312 3.0 8.0 0.00 0.00 0.00 32 1017.5
20260507231007 66 281 1.0 8.0 0.00 0.00 0.00 33 1016.0
20260507230846 66 331 3.0 8.0 0.00 0.00 0.00 33 1017.6
20260507230504 66 319 4.0 8.0 0.00 0.00 0.00 32 1016.0
20260507230340 67 317 2.0 7.0 0.00 0.00 0.00 33 1017.6
20260507230032 66 284 1.0 7.0 0.00 0.00 0.00 33 1016.0
20260507225834 67 317 2.0 6.0 0.00 0.00 0.00 33 1017.6
20260507225508 66 267 1.0 6.0 0.00 0.00 0.00 31 1016.0
20260507225329 67 282 2.0 6.0 0.00 0.00 0.00 32 1017.6
20260507225007 66 267 2.0 4.0 0.00 0.00 0.00 33 1016.1
20260507224822 66 232 2.0 4.0 0.00 0.00 0.00 33 1017.6
20260507224513 66 100 1.0 4.0 0.00 0.00 0.00 35 1016.1
20260507224316 66 273 2.0 4.0 0.00 0.00 0.00 33 1017.6
20260507224007 65 124 2.0 9.0 0.00 0.00 0.00 31 1016.1
20260507223810 66 188 3.0 9.0 0.00 0.00 0.00 32 1017.7
20260507223507 65 294 2.0 9.0 0.00 0.00 0.00 31 1016.2
20260507223304 66 310 3.0 9.0 0.00 0.00 0.00 33 1017.7
20260507223050 66 273 2.0 7.0 0.00 0.00 0.00 31 1016.3
20260507222803 66 308 2.0 8.0 0.00 0.00 0.00 32 1017.9
20260507222523 66 187 3.0 9.0 0.00 0.00 0.00 35 1017.7
20260507222509 66 259 1.0 9.0 0.00 0.00 0.00 33 1016.3
20260507222024 66 168 4.0 9.0 0.00 0.00 0.00 32 1017.9
20260507222006 65 246 2.0 9.0 0.00 0.00 0.00 32 1016.3
20260507221508 66 292 2.0 10.0 0.00 0.00 0.00 32 1016.3
20260507221303 66 261 4.0 10.0 0.00 0.00 0.00 32 1018.0
20260507221002 66 300 5.0 10.0 0.00 0.00 0.00 32 1016.4
20260507220802 66 275 4.0 10.0 0.00 0.00 0.00 34 1018.0
20260507220507 65 235 3.0 10.0 0.00 0.00 0.00 33 1016.4
20260507220303 66 223 3.0 10.0 0.00 0.00 0.00 33 1018.0
20260507220018 66 245 4.0 10.0 0.00 0.00 0.00 31 1016.5
20260507215801 66 293 2.0 9.0 0.00 0.00 0.00 32 1018.1
20260507215509 66 150 1.0 8.0 0.00 0.00 0.00 33 1016.5
20260507215259 66 159 3.0 8.0 0.00 0.00 0.00 34 1018.0
20260507215006 66 310 4.0 8.0 0.00 0.00 0.00 31 1016.5
20260507214758 66 298 3.0 7.0 0.00 0.00 0.00 34 1018.0
20260507214519 65 274 2.0 12.0 0.00 0.00 0.00 33 1016.5
20260507214259 66 237 3.0 12.0 0.00 0.00 0.00 32 1018.0
20260507214008 66 291 3.0 12.0 0.00 0.00 0.00 31 1016.6
20260507213756 67 318 3.0 12.0 0.00 0.00 0.00 32 1018.1
20260507213506 67 323 3.0 9.0 0.00 0.00 0.00 31 1016.6
20260507213256 67 322 2.0 9.0 0.00 0.00 0.00 32 1018.2
20260507213022 67 247 2.0 9.0 0.00 0.00 0.00 32 1016.6
20260507212757 67 244 2.0 8.0 0.00 0.00 0.00 32 1018.1
20260507212509 67 292 2.0 8.0 0.00 0.00 0.00 32 1016.7
20260507212257 67 285 2.0 8.0 0.00 0.00 0.00 31 1018.1
20260507212013 67 317 0.0 7.0 0.00 0.00 0.00 32 1016.7
20260507211756 67 290 2.0 7.0 0.00 0.00 0.00 32 1018.1
20260507211520 67 275 3.0 7.0 0.00 0.00 0.00 31 1016.8
20260507211254 67 294 2.0 9.0 0.00 0.00 0.00 32 1018.2
20260507211007 66 313 1.0 9.0 0.00 0.00 0.00 32 1016.7
20260507210754 67 302 3.0 9.0 0.00 0.00 0.00 34 1018.2
20260507210505 66 278 3.0 8.0 0.00 0.00 0.00 33 1018.2
20260507210017 65 236 2.0 8.0 0.00 0.00 0.00 32 1016.7
20260507205742 66 280 3.0 10.0 0.00 0.00 0.00 32 1018.3
20260507205503 66 315 2.0 10.0 0.00 0.00 0.00 33 1016.8
20260507205236 66 278 3.0 10.0 0.00 0.00 0.00 32 1018.2
20260507205004 66 255 3.0 10.0 0.00 0.00 0.00 33 1016.8
20260507204730 66 350 3.0 8.0 0.00 0.00 0.00 34 1018.3
20260507204514 66 323 4.0 8.0 0.00 0.00 0.00 32 1016.8
20260507204224 67 248 2.0 7.0 0.00 0.00 0.00 34 1018.3
20260507204003 66 275 1.0 7.0 0.00 0.00 0.00 34 1016.8
20260507203718 66 298 2.0 8.0 0.00 0.00 0.00 34 1018.3
20260507203503 65 242 0.0 8.0 0.00 0.00 0.00 35 1016.9
20260507203212 66 240 3.0 8.0 0.00 0.00 0.00 33 1018.4
20260507203007 65 238 2.0 9.0 0.00 0.00 0.00 34 1016.9
20260507202705 66 248 3.0 9.0 0.00 0.00 0.00 33 1018.3
20260507202502 66 246 2.0 9.0 0.00 0.00 0.00 33 1016.9
20260507202201 66 256 3.0 9.0 0.00 0.00 0.00 34 1018.4
20260507202004 65 288 3.0 9.0 0.00 0.00 0.00 34 1016.9
20260507201654 66 207 2.0 8.0 0.00 0.00 0.00 35 1018.4
20260507201505 65 165 2.0 8.0 0.00 0.00 0.00 34 1017.0
20260507201148 65 232 3.0 8.0 0.00 0.00 0.00 35 1018.3
20260507201006 65 294 2.0 8.0 0.00 0.00 0.00 34 1016.9
20260507200642 65 330 2.0 7.0 0.00 0.00 0.00 36 1018.4
20260507200504 64 281 2.0 8.0 0.00 0.00 0.00 35 1017.1
20260507200136 65 306 3.0 8.0 0.00 0.00 0.00 36 1018.5
20260507200007 65 306 2.0 8.0 0.00 0.00 0.00 35 1017.1
20260507195630 65 286 3.0 8.0 0.00 0.00 0.00 35 1018.4
20260507195503 64 275 3.0 8.0 0.00 0.00 0.00 35 1017.1
20260507195352 65 201 2.0 7.0 0.00 0.00 0.00 36 1018.4
20260507195004 64 209 1.0 6.0 0.00 0.00 0.00 36 1017.1
20260507194619 64 259 3.0 7.0 0.00 0.00 0.00 37 1018.4
20260507194504 63 248 2.0 7.0 0.00 0.00 0.00 36 1017.0
20260507194112 64 250 3.0 8.0 0.00 0.00 0.00 37 1018.4
20260507194005 63 278 2.0 8.0 0.00 0.00 0.00 37 1017.0
20260507193606 64 312 3.0 8.0 0.00 0.00 0.00 39 1018.5
20260507193504 63 180 1.0 8.0 0.00 0.00 0.00 39 1017.1
20260507193100 63 282 3.0 8.0 0.00 0.00 0.00 38 1018.5
20260507193038 63 284 4.0 8.0 0.00 0.00 0.00 38 1017.1
20260507192554 63 315 2.0 8.0 0.00 0.00 0.00 38 1018.5
20260507192503 63 298 4.0 8.0 0.00 0.00 0.00 39 1017.1
20260507192048 63 211 3.0 9.0 0.00 0.00 0.00 40 1018.5
20260507192003 63 225 0.0 9.0 0.00 0.00 0.00 39 1017.1
20260507191542 63 252 3.0 9.0 0.00 0.00 0.00 40 1018.5
20260507191504 62 256 3.0 9.0 0.00 0.00 0.00 39 1017.1
20260507191036 63 301 3.0 9.0 0.00 0.00 0.00 40 1018.5
20260507191003 62 308 2.0 9.0 0.00 0.00 0.00 40 1017.1
20260507190530 62 322 2.0 9.0 0.00 0.00 0.00 42 1018.7
20260507190503 62 275 0.0 9.0 0.00 0.00 0.00 41 1017.1
20260507190024 62 246 3.0 9.0 0.00 0.00 0.00 40 1018.7
20260507190006 62 242 2.0 6.0 0.00 0.00 0.00 41 1017.1
20260507185518 63 311 3.0 8.0 0.00 0.00 0.00 41 1018.7
20260507185503 62 293 3.0 8.0 0.00 0.00 0.00 41 1017.1
20260507185012 62 273 3.0 8.0 0.00 0.00 0.00 42 1018.7
20260507185003 61 273 2.0 8.0 0.00 0.00 0.00 41 1017.2
20260507184512 62 239 3.0 8.0 0.00 0.00 0.00 42 1017.1
20260507184506 62 239 3.0 8.0 0.00 0.00 0.00 42 1018.7
20260507184004 61 312 4.0 8.0 0.00 0.00 0.00 42 1017.2
20260507183503 61 281 1.0 6.0 0.00 0.00 0.00 42 1017.2
20260507183454 61 281 3.0 6.0 0.00 0.00 0.00 43 1018.8
20260507183009 61 309 2.0 7.0 0.00 0.00 0.00 43 1017.2
20260507182948 61 279 4.0 6.0 0.00 0.00 0.00 43 1018.8
20260507182505 60 246 3.0 8.0 0.00 0.00 0.00 45 1017.1
20260507182442 60 257 4.0 8.0 0.00 0.00 0.00 45 1018.7
20260507182011 60 246 3.0 8.0 0.00 0.00 0.00 44 1017.1
20260507181936 60 243 3.0 7.0 0.00 0.00 0.00 44 1018.7
20260507181505 60 257 3.0 7.0 0.00 0.00 0.00 43 1017.2
20260507181430 61 296 2.0 7.0 0.00 0.00 0.00 44 1018.7
20260507181004 60 256 1.0 7.0 0.00 0.00 0.00 44 1017.1
20260507180924 60 213 3.0 7.0 0.00 0.00 0.00 44 1018.7
20260507180502 60 243 1.0 7.0 0.00 0.00 0.00 44 1017.2
20260507180418 60 303 3.0 7.0 0.00 0.00 0.00 45 1018.7
20260507180008 60 276 2.0 8.0 0.00 0.00 0.00 44 1017.2
20260507175912 60 269 2.0 8.0 0.00 0.00 0.00 45 1018.7
20260507175503 60 239 2.0 8.0 0.00 0.00 0.00 43 1017.2
20260507175004 60 249 0.0 5.0 0.00 0.00 0.00 44 1017.2
20260507174859 60 257 2.0 5.0 0.00 0.00 0.00 44 1018.5
20260507174513 60 283 1.0 7.0 0.00 0.00 0.00 44 1017.1
20260507174354 61 186 3.0 7.0 0.00 0.00 0.00 44 1018.5
20260507174002 60 292 3.0 7.0 0.00 0.00 0.00 42 1017.1
20260507173849 61 294 3.0 7.0 0.00 0.00 0.00 43 1018.5
20260507173504 61 294 3.0 6.0 0.00 0.00 0.00 43 1017.1
20260507173342 62 283 1.0 6.0 0.00 0.00 0.00 43 1018.5
20260507173017 62 306 1.0 6.0 0.00 0.00 0.00 41 1017.1
20260507172836 62 232 1.0 4.0 0.00 0.00 0.00 41 1018.5
20260507172504 61 300 1.0 7.0 0.00 0.00 0.00 41 1017.0
20260507172330 62 300 2.0 7.0 0.00 0.00 0.00 42 1018.4
20260507172051 61 109 2.0 7.0 0.00 0.00 0.00 44 1018.4
20260507172004 61 163 2.0 7.0 0.00 0.00 0.00 42 1016.9
20260507171515 60 109 2.0 4.0 0.00 0.00 0.00 43 1016.9
20260507171318 60 102 2.0 4.0 0.00 0.00 0.00 44 1018.4
20260507171005 59 284 1.0 6.0 0.00 0.00 0.00 43 1016.8
20260507170812 59 284 2.0 7.0 0.00 0.00 0.00 45 1018.3
20260507170506 59 254 1.0 7.0 0.00 0.00 0.00 41 1016.8
20260507170306 59 291 3.0 7.0 0.00 0.00 0.00 43 1018.4
20260507170010 59 108 3.0 7.0 0.00 0.00 0.00 42 1016.8
20260507165800 59 176 3.0 12.0 0.00 0.00 0.00 41 1018.3
20260507165506 59 300 3.0 12.0 0.00 0.00 0.00 40 1016.8
20260507165254 60 298 4.0 12.0 0.00 0.00 0.00 42 1018.4
20260507165009 59 112 3.0 12.0 0.00 0.00 0.00 43 1016.9
20260507164507 58 100 4.0 12.0 0.00 0.00 0.00 42 1016.9
20260507164244 58 284 2.0 12.0 0.00 0.00 0.00 44 1018.4
20260507164003 58 285 1.0 12.0 0.00 0.00 0.00 43 1017.0
20260507163745 58 305 3.0 12.0 0.00 0.00 0.00 42 1018.5
20260507163504 58 98 1.0 11.0 0.00 0.00 0.00 44 1017.0
20260507163242 58 266 3.0 11.0 0.00 0.00 0.00 46 1018.5
20260507163013 57 104 4.0 11.0 0.00 0.00 0.00 45 1017.0
20260507162742 57 275 2.0 11.0 0.00 0.00 0.00 42 1018.4
20260507162505 57 320 2.0 7.0 0.00 0.00 0.00 46 1016.8
20260507162242 57 300 2.0 7.0 0.00 0.00 0.00 45 1018.4
20260507162006 56 109 2.0 7.0 0.00 0.00 0.00 44 1016.8
20260507161742 57 341 2.0 8.0 0.00 0.00 0.00 49 1018.4
20260507161515 56 157 1.0 8.0 0.00 0.00 0.00 51 1017.0
20260507161242 56 124 1.0 8.0 0.00 0.00 0.00 49 1018.5
20260507161007 55 101 1.0 8.0 0.00 0.00 0.00 53 1017.0
20260507160740 55 112 1.0 7.0 0.00 0.00 0.00 53 1018.4
20260507160507 54 107 0.0 7.0 0.00 0.00 0.00 53 1017.1
20260507160502 55 262 2.0 7.0 0.00 0.00 0.00 52 1018.4
20260507160022 54 209 1.0 6.0 0.00 0.00 0.00 52 1017.1
20260507155738 54 289 2.0 6.0 0.00 0.00 0.00 54 1018.5
20260507155508 53 114 2.0 7.0 0.00 0.00 0.00 53 1017.0
20260507155238 53 101 3.0 7.0 0.00 0.00 0.00 55 1018.5
20260507155002 53 234 1.0 7.0 0.00 0.00 0.00 54 1017.1
20260507154738 53 283 2.0 7.0 0.00 0.00 0.00 58 1018.5
20260507154520 52 324 2.0 4.0 0.00 0.00 0.00 58 1017.1
20260507154238 53 261 2.0 4.0 0.00 0.00 0.00 58 1018.5
20260507154011 52 265 1.0 4.0 0.00 0.00 0.00 58 1017.1
20260507153734 53 267 2.0 6.0 0.00 0.00 0.00 58 1018.5
20260507153511 52 258 1.0 6.0 0.00 0.00 0.00 57 1017.1
20260507153234 53 287 2.0 6.0 0.00 0.00 0.00 58 1018.7
20260507153014 52 259 3.0 6.0 0.00 0.00 0.00 57 1017.1
20260507152734 52 310 1.0 6.0 0.00 0.00 0.00 57 1018.5
20260507152504 52 280 0.0 5.0 0.00 0.00 0.00 57 1017.0
20260507152233 52 283 2.0 5.0 0.00 0.00 0.00 58 1018.5
20260507152005 51 279 1.0 5.0 0.00 0.00 0.00 58 1017.0
20260507151734 51 311 2.0 5.0 0.00 0.00 0.00 59 1018.3
20260507151512 51 283 1.0 4.0 0.00 0.00 0.00 59 1016.9
20260507151235 51 296 1.0 4.0 0.00 0.00 0.00 58 1018.3
20260507151005 51 274 2.0 4.0 0.00 0.00 0.00 58 1016.8
20260507150734 51 257 1.0 2.0 0.00 0.00 0.00 59 1018.3
20260507150507 50 259 1.0 3.0 0.00 0.00 0.00 59 1016.9
20260507150456 51 259 2.0 4.0 0.00 0.00 0.00 60 1018.3
20260507150020 50 259 1.0 4.0 0.00 0.00 0.00 59 1016.8
20260507145733 50 259 1.0 4.0 0.00 0.00 0.00 59 1018.3
20260507145507 50 273 1.0 6.0 0.00 0.00 0.00 59 1016.9
20260507145234 50 273 2.0 6.0 0.00 0.00 0.00 60 1018.4
20260507145014 49 239 0.0 6.0 0.00 0.00 0.00 60 1016.9
20260507144957 50 239 3.0 6.0 0.00 0.00 0.00 60 1018.2
20260507144527 49 269 2.0 6.0 0.00 0.00 0.00 62 1016.8
20260507144234 49 240 2.0 6.0 0.00 0.00 0.00 62 1018.2
20260507144009 49 292 2.0 6.0 0.00 0.00 0.00 61 1016.8
20260507143733 49 290 2.0 4.0 0.00 0.00 0.00 63 1018.2
20260507143505 48 239 2.0 4.0 0.00 0.00 0.00 62 1016.8
20260507143234 49 255 2.0 4.0 0.00 0.00 0.00 64 1018.3
20260507143023 48 296 2.0 5.0 0.00 0.00 0.00 64 1016.8
20260507142734 48 283 2.0 5.0 0.00 0.00 0.00 65 1018.3
20260507142511 48 286 1.0 5.0 0.00 0.00 0.00 65 1016.8
20260507142231 48 286 2.0 5.0 0.00 0.00 0.00 64 1018.3
20260507142006 48 250 2.0 6.0 0.00 0.00 0.00 65 1016.7
20260507141732 48 290 3.0 6.0 0.00 0.00 0.00 65 1018.2
20260507141524 47 296 2.0 6.0 0.00 0.00 0.00 66 1016.7
20260507141231 47 259 2.0 6.0 0.00 0.00 0.00 66 1018.3
20260507141008 47 279 3.0 6.0 0.00 0.00 0.00 66 1016.6
20260507140725 47 304 1.0 4.0 0.00 0.00 0.00 67 1018.2
20260507140507 46 303 0.0 5.0 0.00 0.00 0.00 68 1016.6
20260507140220 47 313 2.0 7.0 0.00 0.00 0.00 68 1018.2
20260507140016 46 281 0.0 7.0 0.00 0.00 0.00 68 1016.6
20260507135718 46 256 3.0 7.0 0.00 0.00 0.00 69 1018.1
20260507135510 46 284 3.0 7.0 0.00 0.00 0.00 68 1016.6
20260507135218 46 316 2.0 5.0 0.00 0.00 0.00 71 1018.0
20260507135011 45 295 2.0 4.0 0.00 0.00 0.00 71 1016.3
20260507134718 45 302 1.0 3.0 0.00 0.00 0.00 72 1017.6
20260507134515 44 302 1.0 3.0 0.00 0.00 0.00 72 1016.2
20260507134439 44 302 1.0 3.0 0.00 0.00 0.00 73 1017.6
20260507134007 44 302 1.0 3.0 0.00 0.00 0.00 73 1016.2
20260507133718 44 300 1.0 6.0 0.00 0.00 0.00 74 1017.6
20260507133510 43 301 1.0 6.0 0.00 0.00 0.00 74 1016.2
20260507133216 43 271 1.0 6.0 0.00 0.00 0.00 75 1017.5
20260507133025 42 270 1.0 6.0 0.00 0.00 0.00 74 1016.0
20260507132716 42 282 1.0 3.0 0.00 0.00 0.00 76 1017.5
20260507132506 42 281 0.0 4.0 0.00 0.00 0.00 75 1016.0
20260507132216 42 281 1.0 4.0 0.00 0.00 0.00 75 1017.4
20260507132010 42 281 0.0 4.0 0.00 0.00 0.00 75 1016.0
20260507131714 42 281 2.0 4.0 0.00 0.00 0.00 76 1017.3
20260507131528 41 284 1.0 4.0 0.00 0.00 0.00 75 1015.8
20260507131214 42 284 1.0 4.0 0.00 0.00 0.00 76 1017.3
20260507131010 41 284 1.0 4.0 0.00 0.00 0.00 75 1015.8
20260507130713 42 284 1.0 3.0 0.00 0.00 0.00 75 1017.3
20260507130508 41 284 1.0 3.0 0.00 0.00 0.00 74 1015.8
20260507130214 42 285 0.0 0.0 0.00 0.00 0.00 74 1017.2
20260507130052 42 285 0.0 0.0 0.00 0.00 0.00 74 1015.7
20260507125714 42 284 0.0 0.0 0.00 0.00 0.00 73 1017.1
20260507125511 42 284 0.0 2.0 0.00 0.00 0.00 73 1015.6
20260507125211 43 284 1.0 2.0 0.00 0.00 0.00 73 1017.2
20260507125006 42 284 0.0 3.0 0.00 0.00 0.00 72 1015.7
20260507124712 43 285 1.0 3.0 0.00 0.00 0.00 73 1017.2
20260507124520 43 285 0.0 3.0 0.00 0.00 0.00 72 1015.7
20260507124212 43 285 1.0 3.0 0.00 0.00 0.00 72 1017.1
20260507124006 43 285 1.0 3.0 0.00 0.00 0.00 72 1015.7
20260507123711 44 285 1.0 3.0 0.00 0.00 0.00 71 1017.1
20260507123509 44 283 1.0 3.0 0.00 0.00 0.00 71 1015.6
20260507123205 44 277 2.0 6.0 0.00 0.00 0.00 71 1017.1
20260507123026 44 277 0.0 6.0 0.00 0.00 0.00 70 1015.5
20260507122659 44 277 2.0 6.0 0.00 0.00 0.00 71 1017.1
20260507122507 44 277 1.0 6.0 0.00 0.00 0.00 70 1015.6
20260507122153 45 275 2.0 6.0 0.00 0.00 0.00 70 1017.1
20260507122011 44 273 2.0 4.0 0.00 0.00 0.00 69 1015.6
20260507121647 45 273 1.0 3.0 0.00 0.00 0.00 70 1017.1
20260507121519 45 273 1.0 3.0 0.00 0.00 0.00 69 1015.6
20260507121140 45 281 1.0 4.0 0.00 0.00 0.00 69 1017.1
20260507121010 45 281 0.0 4.0 0.00 0.00 0.00 68 1015.5
20260507120635 46 288 2.0 4.0 0.00 0.00 0.00 70 1016.9
20260507120507 45 288 1.0 4.0 0.00 0.00 0.00 69 1015.5
20260507120129 45 314 2.0 5.0 0.00 0.00 0.00 70 1016.9
20260507120012 45 297 1.0 5.0 0.00 0.00 0.00 70 1015.5
20260507115623 45 299 2.0 5.0 0.00 0.00 0.00 71 1016.9
20260507115503 44 313 2.0 5.0 0.00 0.00 0.00 70 1015.5
20260507115336 45 311 2.0 4.0 0.00 0.00 0.00 71 1017.1
20260507115004 44 311 2.0 4.0 0.00 0.00 0.00 69 1015.6
20260507114611 44 308 1.0 4.0 0.00 0.00 0.00 72 1016.9
20260507114514 44 284 2.0 4.0 0.00 0.00 0.00 71 1015.5
20260507114105 44 284 1.0 4.0 0.00 0.00 0.00 72 1016.9
20260507114003 44 284 0.0 4.0 0.00 0.00 0.00 71 1015.4
20260507113559 44 282 2.0 4.0 0.00 0.00 0.00 72 1016.8
20260507113503 44 284 1.0 4.0 0.00 0.00 0.00 71 1015.5
20260507113054 44 271 1.0 4.0 0.00 0.00 0.00 71 1016.9
20260507113004 44 271 2.0 4.0 0.00 0.00 0.00 70 1015.4
20260507112547 45 286 1.0 3.0 0.00 0.00 0.00 70 1016.9
20260507112503 44 286 0.0 3.0 0.00 0.00 0.00 69 1015.4
20260507112041 45 271 2.0 4.0 0.00 0.00 0.00 69 1016.7
20260507112003 45 271 0.0 4.0 0.00 0.00 0.00 69 1015.3
20260507111535 45 300 2.0 4.0 0.00 0.00 0.00 70 1016.7
20260507111509 45 300 1.0 4.0 0.00 0.00 0.00 69 1015.2
20260507111029 45 298 1.0 3.0 0.00 0.00 0.00 70 1016.7
20260507111003 44 298 1.0 3.0 0.00 0.00 0.00 69 1015.2
20260507110523 45 288 1.0 3.0 0.00 0.00 0.00 70 1016.7
20260507110502 44 288 0.0 3.0 0.00 0.00 0.00 69 1015.2
20260507110018 45 288 1.0 4.0 0.00 0.00 0.00 69 1016.5
20260507110004 45 288 1.0 4.0 0.00 0.00 0.00 69 1015.0
20260507105732 45 290 2.0 5.0 0.00 0.00 0.00 70 1016.6
20260507105503 45 289 1.0 5.0 0.00 0.00 0.00 69 1015.0
20260507105008 45 301 2.0 5.0 0.00 0.00 0.00 70 1016.6
20260507105004 45 301 1.0 5.0 0.00 0.00 0.00 69 1015.1
20260507104718 45 297 2.0 4.0 0.00 0.00 0.00 68 1016.7
20260507104505 45 297 2.0 4.0 0.00 0.00 0.00 68 1015.2
20260507104003 45 296 1.0 4.0 0.00 0.00 0.00 68 1015.0
20260507103954 45 296 1.0 4.0 0.00 0.00 0.00 69 1016.6
20260507103503 45 246 2.0 4.0 0.00 0.00 0.00 67 1015.0
20260507103448 46 246 1.0 4.0 0.00 0.00 0.00 68 1016.6
20260507103022 46 306 0.0 3.0 0.00 0.00 0.00 67 1015.1
20260507102941 46 306 1.0 3.0 0.00 0.00 0.00 67 1016.7
20260507102503 46 308 1.0 3.0 0.00 0.00 0.00 65 1015.0
20260507102435 47 308 1.0 3.0 0.00 0.00 0.00 66 1016.6
20260507102003 46 300 0.0 3.0 0.00 0.00 0.00 65 1015.0
20260507101929 47 300 1.0 3.0 0.00 0.00 0.00 65 1016.6
20260507101647 47 284 2.0 6.0 0.00 0.00 0.00 65 1016.5
20260507101504 46 284 0.0 6.0 0.00 0.00 0.00 64 1015.0
20260507101002 46 284 1.0 6.0 0.00 0.00 0.00 65 1015.0
20260507100916 46 284 3.0 6.0 0.00 0.00 0.00 66 1016.5
20260507100504 45 284 2.0 6.0 0.00 0.00 0.00 66 1014.9
20260507100411 46 284 2.0 6.0 0.00 0.00 0.00 67 1016.4
20260507100122 46 285 2.0 3.0 0.00 0.00 0.00 67 1016.4
20260507100006 45 285 2.0 4.0 0.00 0.00 0.00 67 1014.9
20260507095504 46 285 1.0 4.0 0.00 0.00 0.00 65 1014.8
20260507095359 46 285 2.0 4.0 0.00 0.00 0.00 66 1016.4
20260507095003 46 285 2.0 4.0 0.00 0.00 0.00 66 1014.8
20260507094853 46 285 2.0 4.0 0.00 0.00 0.00 66 1016.3
20260507094509 46 308 2.0 6.0 0.00 0.00 0.00 66 1014.8
20260507094346 46 299 2.0 6.0 0.00 0.00 0.00 66 1016.3
20260507094104 46 284 2.0 6.0 0.00 0.00 0.00 66 1016.3
20260507094003 45 301 1.0 6.0 0.00 0.00 0.00 66 1014.8
20260507093502 45 288 2.0 3.0 0.00 0.00 0.00 66 1014.7
20260507093335 46 279 2.0 4.0 0.00 0.00 0.00 65 1016.3
20260507093008 46 258 1.0 4.0 0.00 0.00 0.00 64 1014.7
20260507092829 46 258 1.0 4.0 0.00 0.00 0.00 64 1016.3
20260507092509 46 257 1.0 4.0 0.00 0.00 0.00 63 1014.7
20260507092009 47 275 0.0 3.0 0.00 0.00 0.00 62 1014.7
20260507091817 47 246 0.0 3.0 0.00 0.00 0.00 63 1016.1
20260507091507 47 246 0.0 3.0 0.00 0.00 0.00 61 1014.7
20260507091311 48 246 1.0 3.0 0.00 0.00 0.00 62 1016.0
20260507091004 47 246 1.0 3.0 0.00 0.00 0.00 62 1014.6
20260507090806 47 266 1.0 3.0 0.00 0.00 0.00 62 1016.0
20260507090507 47 266 0.0 3.0 0.00 0.00 0.00 61 1014.6
20260507090259 48 266 1.0 5.0 0.00 0.00 0.00 61 1015.9
20260507090004 47 306 0.0 5.0 0.00 0.00 0.00 60 1014.5
20260507085753 48 306 2.0 5.0 0.00 0.00 0.00 61 1016.0
20260507085503 48 306 2.0 5.0 0.00 0.00 0.00 60 1014.4
20260507085003 47 300 1.0 5.0 0.00 0.00 0.00 61 1014.4
20260507084753 48 298 2.0 5.0 0.00 0.00 0.00 61 1015.8
20260507084508 47 304 2.0 5.0 0.00 0.00 0.00 62 1014.4
20260507084253 46 302 1.0 5.0 0.00 0.00 0.00 63 1015.9
20260507084003 45 21 0.0 4.0 0.00 0.00 0.00 63 1014.5
20260507083753 46 34 1.0 4.0 0.00 0.00 0.00 63 1015.9
20260507083505 46 324 1.0 4.0 0.00 0.00 0.00 63 1014.5
20260507083253 47 252 0.0 2.0 0.00 0.00 0.00 62 1016.0
20260507083012 46 236 0.0 2.0 0.00 0.00 0.00 61 1014.6
20260507082751 47 225 0.0 2.0 0.00 0.00 0.00 60 1016.1
20260507082503 47 225 0.0 2.0 0.00 0.00 0.00 59 1014.7
20260507082251 48 225 0.0 2.0 0.00 0.00 0.00 60 1016.1
20260507082002 48 225 0.0 2.0 0.00 0.00 0.00 59 1014.7
20260507081751 48 225 1.0 2.0 0.00 0.00 0.00 59 1016.0
20260507081516 48 225 0.0 2.0 0.00 0.00 0.00 59 1014.5
20260507081249 49 225 1.0 7.0 0.00 0.00 0.00 59 1015.9
20260507081006 48 225 0.0 3.0 0.00 0.00 0.00 57 1014.5